ISS DEB (52329 NORAD) Tracking and Keplerian Element Data

This shows tracking and keplerian element data for the satellite.

Feedback or suggestion? Click here.




ElementValue
Catalog52329
NameISS DEB
Epoch Orbit1091
Epoch Day188.24877903
Epoch Year2022
RAAN228.1122
Inclination51.6234
Eccentricity0.0014852
Argument of Perigee5.7841
Mean Anonmoly81.7331
Mean Motion16.04031745
Decay Rate0.01921889
L11 52329U 98067TM 22188.24877903 .01921889 26254-2 29568-2 0 9993
L22 52329 51.6234 228.1122 0014852 5.7841 81.7331 16.04031745 10912



Live tracking and technical data element details for ISS DEB (NORAD 52329). ISS DEB can be tracked NOW for your location showing map with azimuth and elevation plus other details from your city location.







IsCatalogInMostPopularTable: catalog: 52329, numindb: 137
Update: records affected: 1



GetName: 52329 ISS DEB

Hit Count: updated at: Fri, 06 Dec 2024 11:25:57 GMT